Regional Weather Roundup
Issued by NWS

Home | Current Version | Previous Version | Text Only | Print | Product List | Glossary On
Versions: 1 2 3 4 5 6 7 8 9 10 11 12 13 14 15 16 17 18 19 20 21 22 23 24 25 26 27 28 29 30 31 32 33 34 35 36 37 38 39 40 41 42 43 44 45 46 47 48 49 50
000
ASUS43 KLSX 230757
RWRMO

WEATHER SUMMARY FOR MISSOURI
NATIONAL WEATHER SERVICE SPRINGFIELD MO
300 AM CDT FRI JUN 23 2017

NOTE: "FAIR" INDICATES FEW OR NO CLOUDS BELOW 12,000 FEET WITH NO
       SIGNIFICANT WEATHER AND/OR OBSTRUCTIONS TO VISIBILITY.
       CURRENT SKY AND/OR WEATHER CONDITIONS ARE NOT AVAILABLE FOR
       CHILLICOTHE AND FARMINGTON.

MOZ001>031-035>038-043-044-053-054-230900-
...NORTHERN AND WESTERN MISSOURI...

CITY           SKY/WX    TMP DP  RH WIND       PRES   REMARKS
KANSAS CTY INT CLOUDY    75  73  93 SW6       29.69F
LEE`S SUMMIT   CLEAR     76  74  93 S8        29.70F
ST JOSEPH      CLOUDY    77  74  90 NW12      29.71S
CHILLICOTHE      N/A     76  73  91 VRB3      29.68F

$$
MOZ066>068-077>081-088>096-101>105-230900-
...SOUTHWEST MISSOURI...

CITY           SKY/WX    TMP DP  RH WIND       PRES   REMARKS
SPRINGFIELD    CLOUDY    73  72  96 S3        29.75S
JOPLIN         CLEAR     75  73  93 S3        29.73F

$$
MOZ032>034-039>042-045>050-055>058-069>072-230900-
...CENTRAL MISSOURI...

CITY           SKY/WX    TMP DP  RH WIND       PRES   REMARKS
COLUMBIA       NOT AVBL
JEFFERSON CITY CLOUDY    77  72  84 SE6       29.71F
ROLLA          CLOUDY    71  71 100 S6        29.74F
SEDALIA        CLEAR     75  74  96 S5        29.72F
WARRENSBURG    CLEAR     73  70  88 S5        29.70S

$$
MOZ051-052-059>065-230900-
...EAST CENTRAL MISSOURI...

CITY           SKY/WX    TMP DP  RH WIND       PRES   REMARKS
ST LOUIS INTL  CLOUDY    79  73  82 S7        29.73F

$$
MOZ072>076-082>087-097>100-106>115-230900-
...SOUTH CENTRAL AND SOUTHEAST MISSOURI...

CITY           SKY/WX    TMP DP  RH WIND       PRES   REMARKS
CAPE GIRARDEAU LGT RAIN  77  73  87 S7        29.72S
POPLAR BLUFF   LGT RAIN  77  75  93 S9        29.71S
WEST PLAINS    CLOUDY    75  73  93 CALM      29.74F

$$


USA.gov is the U.S. government's official web portal to all federal, state and local government web resources and services.